Weather History for St. Petersburg Airport, FL

Change the Weather History Date:

Wednesday, March 19, 2014

  Actual Average Record
Temperature  
Mean Temperature 66 °F -  
Max Temperature 72 °F 77 °F 87 °F (1989)
Min Temperature 60 °F 60 °F 48 °F (1960)
Cooling Degree Days 1    
Growing Degree Days 16 (Base 50)    
Moisture  
Dew Point 53 °F    
Average Humidity 69    
Maximum Humidity 81    
Minimum Humidity 44    
Precipitation  
Precipitation 0.00 in - - ()
Sea Level Pressure  
Sea Level Pressure 30.08 in    
Wind  
Wind Speed 7 mph (NNE)    
Max Wind Speed 14 mph    
Max Gust Speed -    
Visibility 10 miles    
Events      
Averages and records for this station are not official NWS values.
T = Trace of Precipitation, MM = Missing Value Source: NWS Daily Summary

Daily Weather History Graph

Daily Weather History Graph

Search for Another Location

Airport:

Trip Planner

Search our weather history database for the weather conditions in past years. The results will help you decide how hot, cold, wet, or windy it might be!

Date:

Astronomy

Mar. 19, 2014 Rise Set
Actual Time 7:35 AM EDT 7:41 PM EDT
Civil Twilight 7:12 AM EDT 8:04 PM EDT
Nautical Twilight 6:45 AM EDT 8:32 PM EDT
Astronomical Twilight 6:17 AM EDT 8:59 PM EDT
Moon 10:40 PM EDT (3/19) 9:16 AM EDT (3/19)
Length of Visible Light 12h 52m
Length of Day
12h 05m
Waning Gibbous, 91% of the Moon is Illuminated
Mar 19
Waning Gibbous
Mar 23
Last Quarter
Mar 30
New
Apr 7
First Quarter
Apr 15
Full

Hourly Weather History & Observations

Time (EDT) Temp. Dew Point Humidity Pressure Visibility Wind Dir Wind Speed Gust Speed Precip Events Conditions
12:53 AM 60.1 °F 52.0 °F 75% 30.05 in 10.0 mi North 6.9 mph - N/A   Clear
1:53 AM 60.1 °F 52.0 °F 75% 30.05 in 10.0 mi North 5.8 mph - N/A   Clear
2:53 AM 60.1 °F 53.1 °F 78% 30.05 in 10.0 mi ENE 8.1 mph - N/A   Clear
3:53 AM 60.1 °F 52.0 °F 75% 30.04 in 10.0 mi NE 6.9 mph - N/A   Clear
4:53 AM 60.1 °F 52.0 °F 75% 30.04 in 10.0 mi ENE 6.9 mph - N/A   Clear
5:53 AM 60.1 °F 53.1 °F 78% 30.05 in 10.0 mi ENE 6.9 mph - N/A   Clear
6:53 AM 60.1 °F 53.1 °F 78% 30.08 in 10.0 mi ENE 5.8 mph - N/A   Clear
7:53 AM 60.1 °F 53.1 °F 78% 30.08 in 10.0 mi NE 4.6 mph - N/A   Clear
8:53 AM 62.1 °F 55.9 °F 80% 30.10 in 10.0 mi NE 6.9 mph - N/A   Clear
9:53 AM 63.0 °F 55.9 °F 78% 30.12 in 10.0 mi ENE 4.6 mph - N/A   Partly Cloudy
10:53 AM 64.9 °F 55.9 °F 73% 30.14 in 10.0 mi East 4.6 mph - N/A   Partly Cloudy
11:53 AM 66.9 °F 54.0 °F 63% 30.14 in 10.0 mi NNE 6.9 mph - N/A   Clear
12:53 PM 70.0 °F 53.1 °F 55% 30.12 in 10.0 mi ENE 4.6 mph - N/A   Clear
1:53 PM 72.0 °F 48.9 °F 44% 30.10 in 10.0 mi Variable 4.6 mph - N/A   Clear
2:53 PM 71.1 °F 55.0 °F 57% 30.09 in 10.0 mi NW 13.8 mph - N/A   Clear
3:53 PM 71.1 °F 54.0 °F 55% 30.08 in 10.0 mi NW 12.7 mph - N/A   Clear
4:53 PM 71.1 °F 54.0 °F 55% 30.06 in 10.0 mi NW 12.7 mph - N/A   Clear
5:53 PM 70.0 °F 52.0 °F 53% 30.06 in 10.0 mi NW 11.5 mph - N/A   Clear
6:53 PM 68.0 °F 53.1 °F 59% 30.06 in 10.0 mi NNW 11.5 mph - N/A   Clear
7:53 PM 64.0 °F 54.0 °F 70% 30.07 in 10.0 mi NNW 11.5 mph - N/A   Clear
8:53 PM 63.0 °F 54.0 °F 72% 30.06 in 10.0 mi North 8.1 mph - N/A   Clear
9:53 PM 62.1 °F 54.0 °F 75% 30.07 in 10.0 mi North 5.8 mph - N/A   Clear
10:53 PM 61.0 °F 54.0 °F 78% 30.08 in 10.0 mi NNW 6.9 mph - N/A   Clear
11:53 PM 61.0 °F 55.0 °F 81% 30.09 in 10.0 mi NNW 6.9 mph - N/A   Clear